Time,TemperatureF,DewpointF,PressureIn,WindDirection,WindDirectionDegrees,WindSpeedMPH,WindSpeedGustMPH,Humidity,HourlyPrecipIn,Conditions,Clouds,dailyrainin,SoftwareType,DateUTC
2013-06-19 00:00:00,69.6,60.6,29.83,ESE,114,0.0,4.0,73,0.00,,,0.02,Wunderground v.1.15,2013-06-19 05:00:00,
2013-06-19 00:10:00,69.4,60.4,29.83,ESE,114,0.0,4.0,73,0.00,,,0.02,Wunderground v.1.15,2013-06-19 05:10:00,
2013-06-19 00:20:00,69.4,60.4,29.83,SE,141,1.0,4.0,73,0.00,,,0.02,Wunderground v.1.15,2013-06-19 05:20:00,
2013-06-19 00:30:00,69.3,60.7,29.84,SE,138,0.0,4.0,74,0.00,,,0.02,Wunderground v.1.15,2013-06-19 05:30:00,
2013-06-19 00:40:00,69.4,60.4,29.84,SE,138,1.0,4.0,73,0.00,,,0.02,Wunderground v.1.15,2013-06-19 05:40:00,
2013-06-19 00:45:00,69.4,60.4,29.85,SE,136,1.0,4.0,73,0.00,,,0.02,Wunderground v.1.15,2013-06-19 05:45:00,
2013-06-19 00:55:00,69.3,60.3,29.85,SE,136,0.0,4.0,73,0.00,,,0.02,Wunderground v.1.15,2013-06-19 05:55:00,
2013-06-19 01:05:00,69.1,60.1,29.84,SE,136,0.0,4.0,73,0.00,,,0.02,Wunderground v.1.15,2013-06-19 06:05:00,
2013-06-19 01:15:00,68.8,60.2,29.85,SE,136,0.0,4.0,74,0.00,,,0.02,Wunderground v.1.15,2013-06-19 06:15:00,
2013-06-19 01:25:00,68.4,60.2,29.85,SE,136,0.0,2.0,75,0.00,,,0.02,Wunderground v.1.15,2013-06-19 06:25:00,
2013-06-19 01:30:00,68.4,60.2,29.86,SE,136,0.0,2.0,75,0.00,,,0.02,Wunderground v.1.15,2013-06-19 06:30:00,
2013-06-19 01:40:00,68.4,60.2,29.86,SE,136,0.0,2.0,75,0.00,,,0.02,Wunderground v.1.15,2013-06-19 06:40:00,
2013-06-19 01:50:00,68.4,60.2,29.86,SE,136,0.0,0.0,75,0.00,,,0.02,Wunderground v.1.15,2013-06-19 06:50:00,
2013-06-19 02:00:00,68.3,60.1,29.86,SE,136,0.0,0.0,75,0.00,,,0.02,Wunderground v.1.15,2013-06-19 07:00:00,
2013-06-19 02:10:00,67.9,60.1,29.86,SE,136,0.0,0.0,76,0.00,,,0.02,Wunderground v.1.15,2013-06-19 07:10:00,
2013-06-19 02:15:00,67.9,60.1,29.85,SE,136,0.0,0.0,76,0.00,,,0.02,Wunderground v.1.15,2013-06-19 07:15:00,
2013-06-19 02:25:00,67.6,60.1,29.85,SE,136,0.0,0.0,77,0.00,,,0.02,Wunderground v.1.15,2013-06-19 07:25:00,
2013-06-19 02:30:00,67.6,60.1,29.86,SE,136,0.0,0.0,77,0.00,,,0.02,Wunderground v.1.15,2013-06-19 07:30:00,
2013-06-19 02:35:00,67.3,60.2,29.86,SE,136,0.0,0.0,78,0.00,,,0.02,Wunderground v.1.15,2013-06-19 07:35:00,
2013-06-19 02:45:00,66.8,60.1,29.86,SE,136,0.0,0.0,79,0.00,,,0.02,Wunderground v.1.15,2013-06-19 07:45:00,
2013-06-19 02:55:00,67.1,60.4,29.86,SE,136,0.0,0.0,79,0.00,,,0.02,Wunderground v.1.15,2013-06-19 07:55:00,
2013-06-19 03:00:00,67.4,60.7,29.86,SE,136,0.0,0.0,79,0.00,,,0.02,Wunderground v.1.15,2013-06-19 08:00:00,
2013-06-19 03:10:00,67.4,60.7,29.86,SE,136,0.0,0.0,79,0.00,,,0.02,Wunderground v.1.15,2013-06-19 08:10:00,
2013-06-19 03:20:00,67.4,60.7,29.85,SE,136,0.0,0.0,79,0.00,,,0.02,Wunderground v.1.15,2013-06-19 08:20:00,
2013-06-19 03:30:00,67.3,60.6,29.85,SE,136,0.0,0.0,79,0.00,,,0.02,Wunderground v.1.15,2013-06-19 08:30:00,
2013-06-19 03:40:00,67.1,60.4,29.85,SE,136,0.0,0.0,79,0.00,,,0.02,Wunderground v.1.15,2013-06-19 08:40:00,
2013-06-19 03:50:00,66.9,60.5,29.85,SE,136,0.0,0.0,80,0.00,,,0.02,Wunderground v.1.15,2013-06-19 08:50:00,
2013-06-19 03:55:00,66.8,60.4,29.85,SE,136,0.0,0.0,80,0.00,,,0.02,Wunderground v.1.15,2013-06-19 08:55:00,
2013-06-19 04:05:00,66.6,60.6,29.85,SE,136,0.0,0.0,81,0.00,,,0.02,Wunderground v.1.15,2013-06-19 09:05:00,
2013-06-19 04:15:00,66.6,60.6,29.85,SE,136,0.0,0.0,81,0.00,,,0.02,Wunderground v.1.15,2013-06-19 09:15:00,
2013-06-19 04:25:00,66.6,60.6,29.85,SE,136,0.0,0.0,81,0.00,,,0.02,Wunderground v.1.15,2013-06-19 09:25:00,
2013-06-19 04:35:00,66.6,60.9,29.85,SE,136,1.0,2.0,82,0.00,,,0.02,Wunderground v.1.15,2013-06-19 09:35:00,
2013-06-19 04:45:00,66.6,60.9,29.85,SE,126,1.0,4.0,82,0.00,,,0.02,Wunderground v.1.15,2013-06-19 09:45:00,
2013-06-19 04:50:00,66.6,60.9,29.85,SE,126,2.0,2.0,82,0.00,,,0.02,Wunderground v.1.15,2013-06-19 09:50:00,
2013-06-19 05:00:00,66.6,60.9,29.85,SE,127,1.0,1.0,82,0.00,,,0.02,Wunderground v.1.15,2013-06-19 10:00:00,
2013-06-19 05:10:00,66.6,60.9,29.85,SE,127,0.0,6.0,82,0.00,,,0.02,Wunderground v.1.15,2013-06-19 10:10:00,
2013-06-19 05:20:00,66.3,61.0,29.85,NE,47,2.0,2.0,83,0.00,,,0.02,Wunderground v.1.15,2013-06-19 10:20:00,
2013-06-19 05:30:00,66.0,61.0,29.87,ENE,58,1.0,6.0,84,0.00,,,0.02,Wunderground v.1.15,2013-06-19 10:30:00,
2013-06-19 05:40:00,65.8,60.8,29.87,ENE,73,0.0,6.0,84,0.00,,,0.02,Wunderground v.1.15,2013-06-19 10:40:00,
2013-06-19 05:45:00,65.8,60.8,29.87,ENE,73,0.0,6.0,84,0.00,,,0.02,Wunderground v.1.15,2013-06-19 10:45:00,
2013-06-19 05:55:00,65.8,60.8,29.87,ENE,75,0.0,6.0,84,0.00,,,0.02,Wunderground v.1.15,2013-06-19 10:55:00,
2013-06-19 06:05:00,65.8,61.2,29.86,ENE,73,0.0,6.0,85,0.00,,,0.02,Wunderground v.1.15,2013-06-19 11:05:00,
2013-06-19 06:15:00,65.6,61.0,29.87,ENE,72,0.0,6.0,85,0.00,,,0.00,Wunderground v.1.15,2013-06-19 11:15:00,
2013-06-19 06:20:00,65.8,61.2,29.87,ENE,75,0.0,2.0,85,0.00,,,0.00,Wunderground v.1.15,2013-06-19 11:20:00,
2013-06-19 06:30:00,66.0,61.4,29.87,ENE,73,0.0,4.0,85,0.00,,,0.00,Wunderground v.1.15,2013-06-19 11:30:00,
2013-06-19 06:40:00,66.4,61.8,29.87,East,79,1.0,1.0,85,0.00,,,0.00,Wunderground v.1.15,2013-06-19 11:40:00,
2013-06-19 06:45:00,66.6,61.6,29.87,East,93,1.0,2.0,84,0.00,,,0.00,Wunderground v.1.15,2013-06-19 11:45:00,
2013-06-19 06:55:00,67.6,62.3,29.87,East,85,2.0,6.0,83,0.00,,,0.00,Wunderground v.1.15,2013-06-19 11:55:00,
2013-06-19 07:05:00,68.3,62.2,29.87,East,92,3.0,6.0,81,0.00,,,0.00,Wunderground v.1.15,2013-06-19 12:05:00,
2013-06-19 07:15:00,68.9,62.5,29.86,East,97,3.0,6.0,80,0.00,,,0.00,Wunderground v.1.15,2013-06-19 12:15:00,
2013-06-19 07:20:00,69.3,62.9,29.86,East,97,3.0,3.0,80,0.00,,,0.00,Wunderground v.1.15,2013-06-19 12:20:00,
2013-06-19 07:30:00,69.6,62.8,29.87,East,97,2.0,7.0,79,0.00,,,0.00,Wunderground v.1.15,2013-06-19 12:30:00,
2013-06-19 07:40:00,69.6,62.8,29.87,ESE,121,3.0,7.0,79,0.00,,,0.00,Wunderground v.1.15,2013-06-19 12:40:00,
2013-06-19 07:45:00,70.3,63.1,29.87,SE,143,4.0,7.0,78,0.00,,,0.00,Wunderground v.1.15,2013-06-19 12:45:00,
2013-06-19 07:55:00,71.3,63.3,29.87,SE,130,3.0,8.0,76,0.00,,,0.00,Wunderground v.1.15,2013-06-19 12:55:00,
2013-06-19 08:00:00,71.5,63.5,29.87,SE,126,3.0,8.0,76,0.00,,,0.00,Wunderground v.1.15,2013-06-19 13:00:00,
2013-06-19 08:05:00,71.8,63.4,29.87,East,93,3.0,8.0,75,0.00,,,0.00,Wunderground v.1.15,2013-06-19 13:05:00,
2013-06-19 08:15:00,72.5,64.1,29.87,SE,136,4.0,8.0,75,0.00,,,0.00,Wunderground v.1.15,2013-06-19 13:15:00,
2013-06-19 08:25:00,73.5,64.3,29.87,SSE,162,4.0,7.0,73,0.00,,,0.00,Wunderground v.1.15,2013-06-19 13:25:00,
2013-06-19 08:30:00,73.5,63.5,29.88,SE,144,4.0,8.0,71,0.00,,,0.00,Wunderground v.1.15,2013-06-19 13:30:00,
2013-06-19 08:40:00,73.7,63.3,29.88,ESE,110,6.0,8.0,70,0.00,,,0.00,Wunderground v.1.15,2013-06-19 13:40:00,
2013-06-19 08:50:00,74.6,63.3,29.88,ESE,121,3.0,11.0,68,0.00,,,0.00,Wunderground v.1.15,2013-06-19 13:50:00,
2013-06-19 09:00:00,74.7,62.6,29.88,SE,130,5.0,11.0,66,0.00,,,0.00,Wunderground v.1.15,2013-06-19 14:00:00,
2013-06-19 09:10:00,75.4,62.4,29.88,SE,134,4.0,11.0,64,0.00,,,0.00,Wunderground v.1.15,2013-06-19 14:10:00,
2013-06-19 09:15:00,75.8,61.8,29.88,SSE,155,5.0,11.0,62,0.00,,,0.00,Wunderground v.1.15,2013-06-19 14:15:00,
2013-06-19 09:25:00,76.7,62.2,29.88,SSE,147,4.0,11.0,61,0.00,,,0.00,Wunderground v.1.15,2013-06-19 14:25:00,
2013-06-19 09:35:00,76.3,61.4,29.88,SE,145,6.0,6.0,60,0.00,,,0.00,Wunderground v.1.15,2013-06-19 14:35:00,
2013-06-19 09:45:00,76.5,60.6,29.88,SE,140,7.0,11.0,58,0.00,,,0.00,Wunderground v.1.15,2013-06-19 14:45:00,
2013-06-19 09:55:00,77.4,61.0,29.88,SE,127,5.0,11.0,57,0.00,,,0.00,Wunderground v.1.15,2013-06-19 14:55:00,
2013-06-19 10:05:00,78.1,61.1,29.88,SE,131,5.0,11.0,56,0.00,,,0.00,Wunderground v.1.15,2013-06-19 15:05:00,
2013-06-19 10:10:00,78.1,60.1,29.88,ESE,119,6.0,11.0,54,0.00,,,0.00,Wunderground v.1.15,2013-06-19 15:10:00,
2013-06-19 10:20:00,78.1,60.1,29.87,SE,140,5.0,13.0,54,0.00,,,0.00,Wunderground v.1.15,2013-06-19 15:20:00,
2013-06-19 10:30:00,78.3,59.8,29.87,SE,145,5.0,5.0,53,0.00,,,0.00,Wunderground v.1.15,2013-06-19 15:30:00,
2013-06-19 10:40:00,78.5,59.4,29.87,SSE,152,5.0,13.0,52,0.00,,,0.00,Wunderground v.1.15,2013-06-19 15:40:00,
2013-06-19 10:45:00,78.5,59.4,29.87,South,174,5.0,13.0,52,0.00,,,0.00,Wunderground v.1.15,2013-06-19 15:45:00,
2013-06-19 10:55:00,78.6,60.0,29.87,ESE,112,6.0,14.0,53,0.00,,,0.00,Wunderground v.1.15,2013-06-19 15:55:00,
2013-06-19 11:05:00,79.8,60.6,29.86,SE,128,4.0,14.0,52,0.00,,,0.00,Wunderground v.1.15,2013-06-19 16:05:00,
2013-06-19 11:15:00,80.7,61.4,29.86,SSE,155,4.0,7.0,52,0.00,,,0.00,Wunderground v.1.15,2013-06-19 16:15:00,
2013-06-19 11:25:00,80.9,61.1,29.86,SSE,161,6.0,6.0,51,0.00,,,0.00,Wunderground v.1.15,2013-06-19 16:25:00,
2013-06-19 11:30:00,80.3,61.1,29.86,ESE,117,7.0,7.0,52,0.00,,,0.00,Wunderground v.1.15,2013-06-19 16:30:00,
2013-06-19 11:40:00,81.4,61.5,29.86,East,99,6.0,14.0,51,0.00,,,0.00,Wunderground v.1.15,2013-06-19 16:40:00,
2013-06-19 11:50:00,82.2,61.1,29.85,ESE,121,5.0,5.0,49,0.00,,,0.00,Wunderground v.1.15,2013-06-19 16:50:00,
2013-06-19 12:00:00,82.8,62.3,29.85,ESE,123,5.0,14.0,50,0.00,,,0.00,Wunderground v.1.15,2013-06-19 17:00:00,
2013-06-19 12:10:00,83.0,61.9,29.85,SSE,151,7.0,14.0,49,0.00,,,0.00,Wunderground v.1.15,2013-06-19 17:10:00,
2013-06-19 12:15:00,83.2,62.1,29.84,SE,136,6.0,14.0,49,0.00,,,0.00,Wunderground v.1.15,2013-06-19 17:15:00,
2013-06-19 12:25:00,84.0,62.2,29.84,SE,145,4.0,6.0,48,0.00,,,0.00,Wunderground v.1.15,2013-06-19 17:25:00,
2013-06-19 12:35:00,83.6,61.8,29.84,SSE,148,5.0,14.0,48,0.00,,,0.00,Wunderground v.1.15,2013-06-19 17:35:00,
2013-06-19 12:45:00,83.2,62.6,29.83,SSE,147,5.0,14.0,50,0.00,,,0.00,Wunderground v.1.15,2013-06-19 17:45:00,
2013-06-19 12:55:00,83.8,62.6,29.83,South,175,5.0,13.0,49,0.00,,,0.00,Wunderground v.1.15,2013-06-19 17:55:00,
2013-06-19 13:00:00,83.8,62.6,29.83,SSE,157,5.0,13.0,49,0.00,,,0.00,Wunderground v.1.15,2013-06-19 18:00:00,
2013-06-19 13:10:00,83.6,62.4,29.83,SSE,164,5.0,5.0,49,0.00,,,0.00,Wunderground v.1.15,2013-06-19 18:10:00,
2013-06-19 13:20:00,84.3,62.5,29.83,ESE,114,6.0,6.0,48,0.00,,,0.00,Wunderground v.1.15,2013-06-19 18:20:00,
2013-06-19 13:30:00,84.9,62.4,29.83,SE,143,5.0,17.0,47,0.00,,,0.00,Wunderground v.1.15,2013-06-19 18:30:00,
2013-06-19 13:40:00,85.5,62.4,29.83,SSE,154,5.0,5.0,46,0.00,,,0.00,Wunderground v.1.15,2013-06-19 18:40:00,
2013-06-19 13:45:00,85.7,61.3,29.82,SSE,165,3.0,8.0,44,0.00,,,0.00,Wunderground v.1.15,2013-06-19 18:45:00,
2013-06-19 13:55:00,86.5,63.3,29.82,SE,134,5.0,16.0,46,0.00,,,0.00,Wunderground v.1.15,2013-06-19 18:55:00,
2013-06-19 14:05:00,85.9,63.3,29.82,SE,127,4.0,16.0,47,0.00,,,0.00,Wunderground v.1.15,2013-06-19 19:05:00,
2013-06-19 14:10:00,85.7,62.5,29.82,SSE,148,4.0,16.0,46,0.00,,,0.00,Wunderground v.1.15,2013-06-19 19:10:00,
2013-06-19 14:20:00,86.1,62.3,29.82,SSE,158,4.0,14.0,45,0.00,,,0.00,Wunderground v.1.15,2013-06-19 19:20:00,
2013-06-19 14:30:00,85.5,61.7,29.81,SSE,154,7.0,14.0,45,0.00,,,0.00,Wunderground v.1.15,2013-06-19 19:30:00,
2013-06-19 14:35:00,85.9,62.1,29.81,SSE,158,6.0,14.0,45,0.00,,,0.00,Wunderground v.1.15,2013-06-19 19:35:00,
2013-06-19 14:45:00,85.9,62.7,29.81,SE,130,6.0,14.0,46,0.00,,,0.00,Wunderground v.1.15,2013-06-19 19:45:00,
2013-06-19 14:55:00,86.1,61.0,29.81,South,171,7.0,15.0,43,0.00,,,0.00,Wunderground v.1.15,2013-06-19 19:55:00,
2013-06-19 15:00:00,85.7,61.3,29.81,SE,136,6.0,6.0,44,0.00,,,0.00,Wunderground v.1.15,2013-06-19 20:00:00,
2013-06-19 15:10:00,85.9,62.1,29.81,SE,138,4.0,15.0,45,0.00,,,0.00,Wunderground v.1.15,2013-06-19 20:10:00,
2013-06-19 15:20:00,85.1,61.4,29.81,SSE,167,7.0,7.0,45,0.00,,,0.00,Wunderground v.1.15,2013-06-19 20:20:00,
2013-06-19 15:25:00,85.1,61.4,29.81,SE,143,6.0,16.0,45,0.00,,,0.00,Wunderground v.1.15,2013-06-19 20:25:00,
2013-06-19 15:35:00,86.1,62.3,29.81,SE,141,6.0,16.0,45,0.00,,,0.00,Wunderground v.1.15,2013-06-19 20:35:00,
2013-06-19 15:45:00,85.7,61.9,29.81,SSW,192,5.0,8.0,45,0.00,,,0.00,Wunderground v.1.15,2013-06-19 20:45:00,
2013-06-19 15:50:00,85.7,61.3,29.81,SE,136,6.0,16.0,44,0.00,,,0.00,Wunderground v.1.15,2013-06-19 20:50:00,
2013-06-19 16:00:00,85.3,60.9,29.81,SSE,158,8.0,8.0,44,0.00,,,0.00,Wunderground v.1.15,2013-06-19 21:00:00,
2013-06-19 16:10:00,85.7,59.3,29.81,SSW,196,8.0,8.0,41,0.00,,,0.00,Wunderground v.1.15,2013-06-19 21:10:00,
2013-06-19 16:15:00,86.3,59.8,29.81,SSE,162,7.0,16.0,41,0.00,,,0.00,Wunderground v.1.15,2013-06-19 21:15:00,
2013-06-19 16:25:00,85.9,58.1,29.81,SSE,151,8.0,8.0,39,0.00,,,0.00,Wunderground v.1.15,2013-06-19 21:25:00,
2013-06-19 16:35:00,85.7,59.3,29.81,SE,145,7.0,16.0,41,0.00,,,0.00,Wunderground v.1.15,2013-06-19 21:35:00,
2013-06-19 16:40:00,85.9,60.8,29.81,ESE,119,8.0,8.0,43,0.00,,,0.00,Wunderground v.1.15,2013-06-19 21:40:00,
2013-06-19 16:50:00,86.1,61.6,29.80,SSE,161,8.0,17.0,44,0.00,,,0.00,Wunderground v.1.15,2013-06-19 21:50:00,
2013-06-19 17:00:00,85.5,61.1,29.80,SE,133,9.0,9.0,44,0.00,,,0.00,Wunderground v.1.15,2013-06-19 22:00:00,
2013-06-19 17:10:00,85.7,61.3,29.80,SE,134,8.0,17.0,44,0.00,,,0.00,Wunderground v.1.15,2013-06-19 22:10:00,
2013-06-19 17:15:00,85.3,60.9,29.79,South,171,9.0,17.0,44,0.00,,,0.00,Wunderground v.1.15,2013-06-19 22:15:00,
2013-06-19 17:25:00,84.9,61.8,29.79,ESE,110,7.0,23.0,46,0.00,,,0.00,Wunderground v.1.15,2013-06-19 22:25:00,
2013-06-19 17:35:00,84.7,62.2,29.79,SE,126,7.0,23.0,47,0.00,,,0.00,Wunderground v.1.15,2013-06-19 22:35:00,
2013-06-19 17:45:00,84.7,62.2,29.78,SSE,155,8.0,23.0,47,0.00,,,0.00,Wunderground v.1.15,2013-06-19 22:45:00,
2013-06-19 17:55:00,85.3,63.4,29.78,East,97,7.0,16.0,48,0.00,,,0.00,Wunderground v.1.15,2013-06-19 22:55:00,
2013-06-19 18:00:00,85.1,63.2,29.78,SSE,152,8.0,8.0,48,0.00,,,0.00,Wunderground v.1.15,2013-06-19 23:00:00,
2013-06-19 18:10:00,84.7,62.2,29.78,SE,143,9.0,9.0,47,0.00,,,0.00,Wunderground v.1.15,2013-06-19 23:10:00,
2013-06-19 18:20:00,85.1,62.0,29.78,SSE,164,7.0,20.0,46,0.00,,,0.00,Wunderground v.1.15,2013-06-19 23:20:00,
2013-06-19 18:25:00,85.1,62.6,29.78,SSE,155,7.0,20.0,47,0.00,,,0.00,Wunderground v.1.15,2013-06-19 23:25:00,
2013-06-19 18:35:00,84.9,62.4,29.77,SE,136,7.0,13.0,47,0.00,,,0.00,Wunderground v.1.15,2013-06-19 23:35:00,
2013-06-19 18:45:00,84.7,62.2,29.77,SE,145,7.0,20.0,47,0.00,,,0.00,Wunderground v.1.15,2013-06-19 23:45:00,
2013-06-19 18:55:00,84.5,62.1,29.77,SSE,148,8.0,16.0,47,0.00,,,0.00,Wunderground v.1.15,2013-06-19 23:55:00,
2013-06-19 19:05:00,84.5,62.1,29.77,ESE,117,7.0,16.0,47,0.00,,,0.00,Wunderground v.1.15,2013-06-20 00:05:00,
2013-06-19 19:15:00,84.3,61.9,29.77,SE,138,7.0,10.0,47,0.00,,,0.00,Wunderground v.1.15,2013-06-20 00:15:00,
2013-06-19 19:20:00,84.3,61.9,29.77,SE,126,6.0,16.0,47,0.00,,,0.00,Wunderground v.1.15,2013-06-20 00:20:00,
2013-06-19 19:30:00,84.0,62.2,29.76,SE,128,7.0,16.0,48,0.00,,,0.00,Wunderground v.1.15,2013-06-20 00:30:00,
2013-06-19 19:40:00,83.6,61.8,29.76,SE,138,6.0,16.0,48,0.00,,,0.00,Wunderground v.1.15,2013-06-20 00:40:00,
2013-06-19 19:45:00,83.4,62.2,29.77,SSE,151,8.0,16.0,49,0.00,,,0.00,Wunderground v.1.15,2013-06-20 00:45:00,
2013-06-19 19:55:00,83.2,62.6,29.77,ESE,110,5.0,15.0,50,0.00,,,0.00,Wunderground v.1.15,2013-06-20 00:55:00,
2013-06-19 20:05:00,82.8,62.3,29.76,SE,144,7.0,15.0,50,0.00,,,0.00,Wunderground v.1.15,2013-06-20 01:05:00,
2013-06-19 20:15:00,82.4,62.5,29.77,SE,143,6.0,15.0,51,0.00,,,0.00,Wunderground v.1.15,2013-06-20 01:15:00,
2013-06-19 20:25:00,82.0,62.6,29.77,SE,143,6.0,13.0,52,0.00,,,0.00,Wunderground v.1.15,2013-06-20 01:25:00,
2013-06-19 20:35:00,81.6,62.8,29.77,ESE,119,4.0,13.0,53,0.00,,,0.00,Wunderground v.1.15,2013-06-20 01:35:00,
2013-06-19 20:40:00,81.2,62.4,29.77,SE,134,3.0,3.0,53,0.00,,,0.00,Wunderground v.1.15,2013-06-20 01:40:00,
2013-06-19 20:50:00,80.7,62.5,29.77,ESE,113,2.0,2.0,54,0.00,,,0.00,Wunderground v.1.15,2013-06-20 01:50:00,
2013-06-19 21:00:00,79.9,62.3,29.77,SE,133,3.0,3.0,55,0.00,,,0.00,Wunderground v.1.15,2013-06-20 02:00:00,
2013-06-19 21:10:00,79.4,62.3,29.77,SE,134,3.0,10.0,56,0.00,,,0.00,Wunderground v.1.15,2013-06-20 02:10:00,
2013-06-19 21:20:00,78.8,62.3,29.78,ESE,109,2.0,9.0,57,0.00,,,0.00,Wunderground v.1.15,2013-06-20 02:20:00,
2013-06-19 21:25:00,78.6,62.6,29.78,ESE,113,2.0,9.0,58,0.00,,,0.00,Wunderground v.1.15,2013-06-20 02:25:00,
2013-06-19 21:35:00,78.1,62.6,29.78,ESE,121,2.0,9.0,59,0.00,,,0.00,Wunderground v.1.15,2013-06-20 02:35:00,
2013-06-19 21:45:00,77.6,62.6,29.79,ESE,120,2.0,9.0,60,0.00,,,0.00,Wunderground v.1.15,2013-06-20 02:45:00,
2013-06-19 21:50:00,77.4,62.4,29.79,ESE,121,2.0,2.0,60,0.00,,,0.00,Wunderground v.1.15,2013-06-20 02:50:00,
2013-06-19 22:00:00,77.0,62.5,29.79,ESE,121,2.0,7.0,61,0.00,,,0.00,Wunderground v.1.15,2013-06-20 03:00:00,
2013-06-19 22:10:00,76.7,62.7,29.79,ESE,123,2.0,2.0,62,0.00,,,0.00,Wunderground v.1.15,2013-06-20 03:10:00,
2013-06-19 22:15:00,76.3,62.3,29.80,ESE,117,2.0,7.0,62,0.00,,,0.00,Wunderground v.1.15,2013-06-20 03:15:00,
2013-06-19 22:25:00,76.0,62.5,29.80,ESE,117,2.0,8.0,63,0.00,,,0.00,Wunderground v.1.15,2013-06-20 03:25:00,
2013-06-19 22:35:00,75.8,63.2,29.81,ESE,116,2.0,8.0,65,0.00,,,0.00,Wunderground v.1.15,2013-06-20 03:35:00,
2013-06-19 22:40:00,75.6,63.0,29.81,ESE,112,2.0,2.0,65,0.00,,,0.00,Wunderground v.1.15,2013-06-20 03:40:00,
2013-06-19 22:50:00,75.3,63.2,29.81,ESE,120,2.0,2.0,66,0.00,,,0.00,Wunderground v.1.15,2013-06-20 03:50:00,
2013-06-19 23:00:00,74.9,62.8,29.81,ESE,119,1.0,1.0,66,0.00,,,0.00,Wunderground v.1.15,2013-06-20 04:00:00,
2013-06-19 23:05:00,74.7,63.0,29.81,ESE,119,1.0,10.0,67,0.00,,,0.00,Wunderground v.1.15,2013-06-20 04:05:00,
2013-06-19 23:10:00,74.6,62.9,29.81,ESE,117,1.0,10.0,67,0.00,,,0.00,Wunderground v.1.15,2013-06-20 04:10:00,
2013-06-19 23:15:00,74.4,62.7,29.81,SE,124,2.0,10.0,67,0.00,,,0.00,Wunderground v.1.15,2013-06-20 04:15:00,
2013-06-19 23:25:00,74.2,63.0,29.81,ESE,121,3.0,6.0,68,0.00,,,0.00,Wunderground v.1.15,2013-06-20 04:25:00,
2013-06-19 23:30:00,74.0,62.8,29.81,ESE,121,2.0,6.0,68,0.00,,,0.00,Wunderground v.1.15,2013-06-20 04:30:00,
2013-06-19 23:40:00,74.0,62.8,29.81,SSE,148,3.0,6.0,68,0.00,,,0.00,Wunderground v.1.15,2013-06-20 04:40:00,
2013-06-19 23:50:00,74.0,62.8,29.81,ESE,121,3.0,3.0,68,0.00,,,0.00,Wunderground v.1.15,2013-06-20 04:50:00,
2013-06-19 23:55:00,73.9,62.7,29.81,SE,126,3.0,6.0,68,0.00,,,0.00,Wunderground v.1.15,2013-06-20 04:55:00,